KD3ADD Weather Reports


time (UTC)temp
F
wind
direction
speed
knots
gust
knots
rain 1hr
in
rain 24hr
in
rain mn
in
humidity
%
barometer
mb
20260507070051 53 294 0.0 1.7 0.00 0.00 0.00 72 1011.2
20260507065540 53 0 0.0 1.7 0.00 0.00 0.00 73 1011.2
20260507065037 53 282 0.0 2.6 0.00 0.00 0.00 73 1011.1
20260507064552 53 0 0.0 2.6 0.00 0.00 0.00 74 1011.2
20260507064040 53 84 0.0 3.5 0.00 0.00 0.00 76 1011.0
20260507063538 53 55 0.9 3.5 0.00 0.00 0.00 75 1011.1
20260507063053 53 88 0.0 3.5 0.00 0.00 0.00 76 1011.3
20260507062538 53 290 0.9 4.3 0.00 0.00 0.00 77 1011.1
20260507062038 53 0 0.9 4.3 0.00 0.00 0.00 78 1011.1
20260507061547 53 247 0.0 1.7 0.00 0.00 0.00 79 1011.2
20260507061040 53 220 0.0 2.6 0.00 0.00 0.00 80 1011.1
20260507060538 53 184 0.0 2.6 0.00 0.00 0.00 79 1011.0
20260507060100 53 315 0.0 3.5 0.00 0.00 0.00 80 1011.1
20260507055538 53 85 0.0 3.5 0.00 0.00 0.00 80 1011.0
20260507055039 53 63 0.9 3.5 0.00 0.00 0.00 81 1011.0
20260507054549 53 88 0.0 2.6 0.00 0.00 0.00 81 1011.0
20260507054040 53 78 0.0 2.6 0.00 0.00 0.00 82 1011.0
20260507053538 53 53 0.9 2.6 0.00 0.00 0.00 82 1010.8
20260507053049 53 73 0.9 2.6 0.00 0.00 0.00 82 1010.7
20260507052544 53 0 0.9 4.3 0.00 0.00 0.00 82 1010.7
20260507052038 53 78 0.0 4.3 0.00 0.00 0.00 83 1010.8
20260507051546 53 0 0.9 3.5 0.00 0.00 0.00 84 1011.0
20260507051037 53 9 0.0 2.6 0.00 0.00 0.00 83 1011.1
20260507050537 53 63 0.9 2.6 0.00 0.00 0.00 83 1010.9
20260507050046 54 81 0.9 2.6 0.00 0.00 0.00 83 1010.8
20260507045540 54 84 0.9 2.6 0.00 0.00 0.00 82 1010.7
20260507045037 54 270 0.9 2.6 0.00 0.00 0.00 82 1010.9
20260507044555 54 94 0.0 1.7 0.00 0.00 0.00 82 1011.0
20260507044037 54 318 0.0 2.6 0.00 0.00 0.00 82 1011.1
20260507043532 54 283 0.0 2.6 0.00 0.00 0.00 82 1011.2
20260507043101 55 56 0.0 2.6 0.00 0.00 0.00 81 1010.9
20260507042536 55 59 0.0 3.5 0.00 0.00 0.00 80 1010.9
20260507042039 55 265 0.9 3.5 0.00 0.00 0.00 80 1010.9
20260507041554 55 75 0.9 3.5 0.00 0.00 0.00 80 1010.7
20260507041033 55 109 0.9 3.5 0.00 0.00 0.00 79 1010.7
20260507040535 55 242 0.0 3.5 0.00 0.00 0.00 79 1010.8
20260507040047 55 25 0.9 3.5 0.00 0.00 0.00 79 1010.8
20260507035535 55 86 0.0 1.7 0.00 0.00 0.00 79 1010.8
20260507035036 55 283 0.9 1.7 0.00 0.00 0.00 79 1010.9
20260507034549 55 110 0.0 2.6 0.00 0.00 0.00 79 1010.6
20260507034034 55 360 0.9 2.6 0.00 0.00 0.00 79 1011.0
20260507033535 56 34 0.0 2.6 0.00 0.00 0.00 79 1010.7
20260507033047 56 0 0.0 3.5 0.00 0.00 0.00 78 1010.9
20260507032533 56 0 0.9 3.5 0.00 0.00 0.00 78 1010.7
20260507032036 56 15 1.7 3.5 0.00 0.00 0.00 78 1010.2
20260507031547 56 74 0.9 5.2 0.00 0.00 0.00 78 1010.3
20260507031036 56 84 1.7 7.0 0.00 0.00 0.00 78 1010.6
20260507030538 56 76 0.9 7.0 0.00 0.00 0.00 78 1010.7
20260507030047 57 40 0.9 7.0 0.00 0.00 0.00 77 1010.5
20260507025534 57 92 0.9 7.0 0.00 0.00 0.00 77 1010.7
20260507025040 57 70 0.9 7.0 0.00 0.00 0.00 77 1010.6
20260507024551 57 44 2.6 7.0 0.00 0.00 0.00 77 1010.5
20260507024036 58 71 1.7 5.2 0.00 0.00 0.00 77 1010.6
20260507023535 58 79 0.9 2.6 0.00 0.00 0.00 75 1010.6
20260507023102 58 0 0.0 5.2 0.00 0.00 0.00 74 1010.5
20260507022536 58 269 0.9 5.2 0.00 0.00 0.00 74 1010.4
20260507022038 58 269 0.9 6.1 0.00 0.00 0.00 74 1010.2
20260507021548 58 263 1.7 6.1 0.00 0.00 0.00 74 1010.3
20260507021036 59 277 1.7 6.1 0.00 0.00 0.00 74 1010.1
20260507020535 59 292 0.9 4.3 0.00 0.00 0.00 75 1010.2
20260507020050 59 158 0.9 5.2 0.00 0.00 0.00 75 1010.2
20260507015535 59 291 0.9 5.2 0.00 0.00 0.00 75 1010.3
20260507015035 59 240 1.7 3.5 0.00 0.00 0.00 74 1010.4
20260507014547 59 301 0.9 6.1 0.00 0.00 0.00 75 1010.3
20260507014035 59 259 0.9 6.1 0.00 0.00 0.00 74 1010.4
20260507013534 59 309 0.9 6.1 0.00 0.00 0.00 74 1010.6
20260507013047 60 278 1.7 5.2 0.00 0.00 0.00 74 1010.4
20260507012540 60 279 0.9 7.8 0.00 0.00 0.00 74 1010.3
20260507012038 60 268 1.7 7.8 0.00 0.00 0.00 74 1010.4
20260507011551 60 234 1.7 7.8 0.00 0.00 0.00 74 1010.3
20260507011034 60 259 1.7 6.1 0.00 0.00 0.00 74 1010.3
20260507010537 60 315 1.7 3.5 0.00 0.00 0.00 74 1010.2
20260507010047 60 294 1.7 3.5 0.00 0.00 0.00 75 1010.0
20260507005540 60 296 0.9 3.5 0.00 0.00 0.00 75 1010.2
20260507005039 60 227 0.9 4.3 0.00 0.00 0.00 74 1010.1
20260507004550 61 321 1.7 4.3 0.00 0.00 0.00 74 1009.8
20260507004038 61 282 0.9 3.5 0.00 0.00 0.00 74 1009.8
20260507003538 61 284 1.7 4.3 0.00 0.00 0.00 74 1009.8
20260507003056 61 267 1.7 4.3 0.00 0.00 0.00 74 1009.8
20260507002535 61 11 0.9 5.2 0.00 0.00 0.00 75 1009.5
20260507002038 61 342 0.9 5.2 0.00 0.00 0.00 75 1009.3
20260507001613 61 0 0.0 2.6 0.00 0.00 0.00 75 1009.3
20260507001037 62 258 0.9 4.3 0.00 0.00 0.00 76 1009.3
20260507000541 62 126 0.9 4.3 0.00 0.00 0.00 76 1009.1
20260507000055 62 287 0.9 2.6 0.00 0.00 0.00 76 1008.9
20260506235538 62 311 0.9 3.5 0.00 0.00 0.00 77 1008.9
20260506235037 62 265 0.9 3.5 0.00 0.00 0.00 77 1008.8
20260506234555 62 336 0.9 4.3 0.00 0.00 0.00 77 1008.6
20260506234038 63 321 0.9 4.3 0.00 0.00 0.00 76 1008.5
20260506233538 63 246 1.7 7.0 0.00 0.00 0.00 77 1008.4
20260506233045 63 294 1.7 7.0 0.00 0.00 0.00 77 1008.2
20260506232537 63 235 0.9 3.5 0.00 0.00 0.00 78 1008.2
20260506232035 64 274 0.9 3.5 0.00 0.00 0.00 79 1008.3
20260506231545 64 246 0.9 4.3 0.00 0.00 0.00 79 1008.3
20260506231037 64 344 1.7 7.0 0.00 0.00 0.00 79 1008.4
20260506230538 64 261 1.7 7.0 0.00 0.00 0.00 80 1008.1
20260506230104 64 303 2.6 7.0 0.00 0.00 0.00 81 1008.1
20260506225538 65 318 0.9 2.6 0.00 0.00 0.00 84 1008.1
20260506225038 65 299 0.0 1.7 0.00 0.00 0.00 85 1008.1
20260506224547 65 294 0.0 1.7 0.00 0.00 0.00 85 1008.1
20260506224037 65 291 0.0 1.7 0.00 0.00 0.00 85 1008.1
20260506223539 65 317 0.0 2.6 0.00 0.00 0.00 85 1008.0
20260506223044 65 0 0.0 2.6 0.00 0.00 0.00 85 1007.8
20260506222535 65 250 0.9 2.6 0.00 0.00 0.00 85 1007.8
20260506222039 65 279 0.9 2.6 0.00 0.00 0.00 84 1007.8
20260506221603 65 244 0.0 2.6 0.00 0.00 0.00 84 1007.7
20260506221037 65 242 0.9 2.6 0.00 0.00 0.00 84 1007.7
20260506220538 65 234 0.9 3.5 0.00 0.00 0.00 83 1007.6
20260506220048 65 247 0.9 3.5 0.00 0.00 0.00 83 1007.7
20260506215542 66 252 1.7 4.3 0.00 0.00 0.00 82 1007.5
20260506215038 66 252 1.7 6.1 0.00 0.00 0.00 82 1007.5
20260506214554 66 282 1.7 6.1 0.00 0.00 0.00 82 1007.4
20260506214038 66 239 1.7 6.1 0.00 0.00 0.00 81 1007.4
20260506213540 66 219 2.6 4.3 0.00 0.00 0.00 81 1007.2
20260506213048 66 250 0.0 2.6 0.00 0.00 0.00 82 1007.2
20260506212538 66 259 0.0 2.6 0.00 0.00 0.00 82 1007.1
20260506212039 66 266 0.9 4.3 0.00 0.00 0.00 81 1007.1
20260506211554 67 230 0.9 4.3 0.00 0.00 0.00 81 1007.1
20260506211035 67 246 0.0 3.5 0.00 0.00 0.00 81 1006.8
20260506210539 67 0 0.9 3.5 0.00 0.00 0.00 81 1006.9
20260506210054 67 249 0.9 3.5 0.00 0.00 0.00 80 1007.0
20260506205537 67 252 0.9 2.6 0.00 0.00 0.00 81 1007.0
20260506205037 67 5 0.9 5.2 0.00 0.00 0.00 81 1007.0
20260506204547 67 285 0.9 5.2 0.00 0.00 0.00 81 1007.0
20260506204034 67 291 1.7 2.6 0.00 0.00 0.00 81 1006.9
20260506203538 67 252 0.9 3.5 0.00 0.00 0.00 81 1006.9
20260506203102 67 219 0.9 3.5 0.00 0.00 0.00 81 1007.0
20260506202538 67 252 0.9 4.3 0.00 0.00 0.00 81 1006.9
20260506202038 67 263 0.9 4.3 0.00 0.00 0.00 81 1006.9
20260506201551 67 223 1.7 4.3 0.00 0.00 0.00 82 1006.9
20260506201037 66 214 1.7 3.5 0.00 0.00 0.00 82 1007.0
20260506200544 66 234 0.9 7.8 0.00 0.00 0.00 82 1006.9
20260506200054 66 296 1.7 7.8 0.00 0.00 0.00 82 1007.0
20260506195538 66 283 1.7 4.3 0.00 0.00 0.00 84 1006.9
20260506195038 65 257 0.9 7.8 0.00 0.00 0.00 83 1007.1
20260506194546 65 254 0.9 7.8 0.00 0.00 0.00 84 1007.2
20260506194038 65 211 1.7 7.8 0.00 0.00 0.00 84 1007.2
20260506193537 65 215 0.9 7.0 0.00 0.00 0.00 84 1007.2
20260506193054 65 246 1.7 7.0 0.00 0.00 0.00 84 1007.2
20260506192534 65 318 0.9 6.1 0.00 0.00 0.00 85 1007.2
20260506192038 64 232 0.9 6.1 0.00 0.00 0.00 85 1007.2
20260506191546 64 217 0.9 6.1 0.00 0.00 0.00 86 1007.2
20260506191035 64 249 0.9 3.5 0.00 0.00 0.00 86 1007.2
20260506190536 64 287 1.7 3.5 0.00 0.00 0.00 86 1007.3
20260506190051 64 330 0.9 3.5 0.00 0.00 0.00 87 1007.3
20260506185534 64 236 0.9 3.5 0.00 0.00 0.00 88 1007.4
20260506185034 63 255 1.7 3.5 0.00 0.00 0.00 88 1007.3
20260506184549 63 206 0.9 3.5 0.00 0.00 0.00 89 1007.3
20260506184035 63 276 0.9 3.5 0.00 0.00 0.00 88 1007.5
20260506183534 62 217 1.7 4.3 0.00 0.00 0.00 88 1007.6
20260506183048 62 245 0.9 4.3 0.00 0.00 0.00 88 1007.6
20260506182533 62 247 1.7 4.3 0.00 0.00 0.00 89 1007.6
20260506182037 62 344 0.9 2.6 0.00 0.00 0.00 89 1007.6
20260506181553 62 279 0.9 2.6 0.00 0.00 0.00 89 1007.6
20260506181035 62 265 0.9 3.5 0.00 0.00 0.00 89 1007.7
20260506180538 62 279 1.7 5.2 0.00 0.00 0.00 89 1007.7
20260506180050 62 254 1.7 5.2 0.00 0.00 0.00 89 1007.7
20260506175535 62 248 1.7 6.1 0.00 0.00 0.00 90 1007.7
20260506175034 62 183 1.7 6.1 0.00 0.00 0.00 90 1007.7
20260506174545 61 209 0.9 6.1 0.00 0.00 0.00 90 1007.7
20260506174035 61 246 2.6 6.1 0.00 0.00 0.00 90 1007.7
20260506173535 61 275 1.7 8.7 0.00 0.00 0.00 90 1007.7
20260506173059 61 255 1.7 8.7 0.00 0.00 0.00 90 1007.6
20260506172534 61 254 1.7 5.2 0.00 0.00 0.00 90 1007.7
20260506172034 61 254 1.7 5.2 0.00 0.00 0.00 90 1007.7
20260506171554 61 248 1.7 6.1 0.00 0.00 0.00 90 1007.7
20260506171035 61 240 1.7 6.1 0.00 0.00 0.00 90 1007.6
20260506170537 61 256 2.6 6.1 0.00 0.00 0.00 90 1007.6
20260506165535 61 227 1.7 7.8 0.00 0.00 0.00 91 1007.7
20260506165035 60 259 2.6 7.8 0.00 0.00 0.00 91 1007.7
20260506164555 60 244 1.7 4.3 0.00 0.00 0.00 91 1007.7
20260506164034 60 215 1.7 4.3 0.00 0.00 0.00 91 1007.7
20260506163533 60 236 0.9 3.5 0.00 0.00 0.00 92 1007.7
20260506163051 60 251 1.7 4.3 0.00 0.00 0.00 92 1007.7
20260506162537 60 224 1.7 7.8 0.00 0.00 0.00 92 1007.7
20260506162036 60 201 1.7 7.8 0.00 0.00 0.00 92 1007.7
20260506161547 60 202 0.9 5.2 0.00 0.00 0.00 92 1007.7
20260506161034 60 207 1.7 5.2 0.00 0.00 0.00 92 1007.8
20260506160534 60 213 0.9 3.5 0.00 0.00 0.00 92 1007.9
20260506160055 60 211 0.9 3.5 0.00 0.00 0.00 92 1007.8
20260506155534 60 212 0.9 3.5 0.00 0.00 0.00 92 1007.8
20260506155034 60 237 0.0 1.7 0.00 0.00 0.00 92 1007.9
20260506154552 60 204 0.9 2.6 0.00 0.00 0.00 92 1007.8
20260506154034 60 230 0.9 2.6 0.00 0.00 0.00 92 1007.8
20260506153539 60 254 0.9 4.3 0.00 0.00 0.00 92 1007.8
20260506153045 60 263 1.7 4.3 0.00 0.00 0.00 92 1007.7
20260506152534 60 179 1.7 6.1 0.00 0.00 0.00 92 1007.7
20260506152036 60 191 2.6 6.1 0.00 0.00 0.00 92 1007.6
20260506151548 60 209 1.7 3.5 0.00 0.00 0.00 92 1007.7
20260506151033 60 238 1.7 3.5 0.00 0.00 0.00 92 1007.7
20260506150536 60 213 1.7 3.5 0.00 0.00 0.00 92 1007.9
20260506150100 60 232 1.7 6.1 0.00 0.00 0.00 91 1007.9
20260506145537 60 239 1.7 6.1 0.00 0.00 0.00 91 1008.0
20260506145036 60 244 1.7 6.1 0.00 0.00 0.00 91 1008.1
20260506144547 60 192 1.7 5.2 0.00 0.00 0.00 91 1008.3
20260506144036 60 182 1.7 10.4 0.00 0.00 0.00 91 1008.6
20260506143536 60 254 1.7 10.4 0.00 0.00 0.00 90 1008.7
20260506143045 60 181 1.7 4.3 0.00 0.00 0.00 90 1008.8
20260506142537 60 0 0.9 3.5 0.00 0.00 0.00 90 1008.7
20260506142036 60 263 0.9 2.6 0.00 0.00 0.00 90 1008.8
20260506141548 60 226 0.9 3.5 0.00 0.00 0.00 90 1008.5
20260506141037 60 248 1.7 3.5 0.00 0.00 0.00 90 1008.4
20260506140535 60 173 1.7 4.3 0.00 0.00 0.00 90 1008.2
20260506140049 60 213 1.7 4.3 0.00 0.00 0.00 90 1008.2
20260506135536 60 207 1.7 4.3 0.00 0.00 0.00 90 1008.1
20260506135036 60 216 1.7 3.5 0.00 0.00 0.00 89 1008.1
20260506134546 60 211 1.7 3.5 0.00 0.00 0.00 89 1008.1
20260506134033 60 231 1.7 3.5 0.00 0.00 0.00 89 1008.1
20260506133534 60 215 1.7 2.6 0.00 0.00 0.00 88 1008.1
20260506133059 60 241 1.7 3.5 0.00 0.00 0.00 88 1008.4
20260506132536 60 229 0.9 4.3 0.00 0.00 0.00 87 1008.3
20260506132036 61 277 1.7 4.3 0.00 0.00 0.00 87 1008.3
20260506131553 61 184 1.7 4.3 0.00 0.00 0.00 87 1008.3
20260506131036 61 211 2.6 4.3 0.00 0.00 0.00 86 1008.2
20260506130537 61 209 1.7 3.5 0.00 0.00 0.00 86 1008.2
20260506130047 61 213 1.7 4.3 0.00 0.00 0.00 86 1008.2
20260506125536 61 241 2.6 4.3 0.00 0.00 0.00 85 1008.2
20260506125036 61 238 1.7 3.5 0.00 0.00 0.00 85 1008.3
20260506124545 61 213 1.7 2.6 0.00 0.00 0.00 85 1008.3
20260506124036 61 238 1.7 3.5 0.00 0.00 0.00 84 1008.3
20260506123540 61 245 0.9 3.5 0.00 0.00 0.00 84 1008.3
20260506123049 61 214 1.7 3.5 0.00 0.00 0.00 82 1008.3
20260506122535 61 246 0.9 3.5 0.00 0.00 0.00 82 1008.4
20260506122035 62 226 0.9 3.5 0.00 0.00 0.00 81 1008.6
20260506121554 62 238 0.9 7.0 0.00 0.00 0.00 80 1008.6
20260506121035 62 0 1.7 7.0 0.00 0.00 0.00 79 1008.7
20260506120537 63 273 1.7 4.3 0.00 0.00 0.00 79 1008.9
20260506120059 63 322 0.9 3.5 0.00 0.00 0.00 78 1008.8
20260506115536 63 275 0.0 2.6 0.00 0.00 0.00 77 1008.8
20260506115034 64 152 0.9 1.7 0.00 0.00 0.00 75 1008.7
20260506114546 64 238 0.9 2.6 0.00 0.00 0.00 75 1008.6
20260506114035 64 240 0.9 2.6 0.00 0.00 0.00 73 1008.5
20260506113534 64 252 0.0 2.6 0.00 0.00 0.00 72 1008.3
20260506113046 64 323 0.0 5.2 0.00 0.00 0.00 72 1008.1
20260506112536 65 215 1.7 5.2 0.00 0.00 0.00 70 1008.1
20260506112034 65 349 0.9 4.3 0.00 0.00 0.00 69 1008.2
20260506111546 65 224 1.7 4.3 0.00 0.00 0.00 68 1008.1
20260506111034 66 273 0.9 5.2 0.00 0.00 0.00 67 1008.1
20260506110534 66 298 0.9 10.4 0.00 0.00 0.00 66 1008.0
20260506110100 66 189 2.6 10.4 0.00 0.00 0.00 64 1007.9
20260506105534 66 182 0.9 5.2 0.00 0.00 0.00 63 1007.8
20260506105034 66 222 2.6 5.2 0.00 0.00 0.00 62 1007.8
20260506104558 66 230 1.7 6.1 0.00 0.00 0.00 63 1007.8
20260506104036 66 252 2.6 5.2 0.00 0.00 0.00 63 1007.8
20260506103534 66 203 1.7 4.3 0.00 0.00 0.00 62 1007.7
20260506103048 66 196 2.6 4.3 0.00 0.00 0.00 62 1007.6
20260506102536 66 235 1.7 5.2 0.00 0.00 0.00 62 1007.5
20260506102034 67 246 1.7 5.2 0.00 0.00 0.00 62 1007.5
20260506101549 67 234 2.6 5.2 0.00 0.00 0.00 62 1007.4
20260506101034 66 246 1.7 5.2 0.00 0.00 0.00 62 1007.2
20260506100534 67 261 2.6 6.1 0.00 0.00 0.00 62 1007.2
20260506100053 67 192 2.6 6.1 0.00 0.00 0.00 61 1007.2
20260506095557 67 250 1.7 5.2 0.00 0.00 0.00 61 1007.2
20260506095035 67 222 2.6 6.1 0.00 0.00 0.00 61 1007.0
20260506094556 67 175 1.7 6.1 0.00 0.00 0.00 60 1007.1
20260506094034 67 238 1.7 4.3 0.00 0.00 0.00 60 1007.2
20260506093534 67 223 0.9 4.3 0.00 0.00 0.00 60 1007.2
20260506093047 67 225 1.7 4.3 0.00 0.00 0.00 59 1007.3
20260506092534 67 237 0.9 5.2 0.00 0.00 0.00 59 1007.3
20260506092036 68 228 1.7 5.2 0.00 0.00 0.00 58 1007.4
20260506091546 68 207 0.9 7.8 0.00 0.00 0.00 58 1007.3
20260506091034 68 245 3.5 7.8 0.00 0.00 0.00 57 1007.4
20260506090534 68 270 1.7 7.0 0.00 0.00 0.00 57 1007.4
20260506090047 68 250 1.7 7.0 0.00 0.00 0.00 57 1007.7
20260506085536 68 261 0.9 5.2 0.00 0.00 0.00 57 1007.7
20260506085036 68 236 1.7 3.5 0.00 0.00 0.00 57 1007.7
20260506084615 68 206 0.9 10.4 0.00 0.00 0.00 56 1007.6
20260506084037 68 360 1.7 10.4 0.00 0.00 0.00 56 1007.6
20260506083537 68 273 0.9 4.3 0.00 0.00 0.00 56 1007.6
20260506083045 68 254 0.9 7.8 0.00 0.00 0.00 55 1007.6
20260506082536 68 256 1.7 7.8 0.00 0.00 0.00 55 1007.6
20260506082036 68 256 2.6 7.0 0.00 0.00 0.00 55 1007.4
20260506081551 68 183 0.9 7.8 0.00 0.00 0.00 55 1007.6
20260506081036 68 202 1.7 7.8 0.00 0.00 0.00 55 1007.4
20260506080536 68 225 3.5 7.8 0.00 0.00 0.00 55 1007.3
20260506073048 69 250 0.9 5.2 0.00 0.00 0.00 53 1007.5
20260506072537 69 242 2.6 9.6 0.00 0.00 0.00 53 1007.6
20260506072037 69 247 2.6 9.6 0.00 0.00 0.00 53 1007.7
20260506071548 69 231 2.6 9.6 0.00 0.00 0.00 53 1007.8
20260506071036 69 274 1.7 7.0 0.00 0.00 0.00 52 1007.7
20260506070536 69 321 1.7 7.0 0.00 0.00 0.00 52 1007.7